Left ArrowRight Arrow

44.8408, -93.29828

Hourly Observations for June 22, 2024

Temp ( °F °C ) Dew Point ( °F °C ) Humidity (%) Winds ( mph kmh ) Pressure ( in mb ) Visibility ( mi km ) Precip ( " mm )
12:04 am 00:04 Cloudy with Light Rain 67 19.4 65 18.3 93 93 ESE 16 26 29.95 1014 5 8 0.01 0.25
12:24 am 00:24 Cloudy with Rain 67 19.4 65 18.3 93 93 ESE 7 11 29.95 1014 4 6 0.07 1.78
12:53 am 00:53 Cloudy with Rain 67 19.4 65 18.3 93 93 ENE 7 11 29.96 1015 5 8 0.20 5.08
1:03 am 01:03 Cloudy with Rain 67 19.4 65 18.3 93 93 ESE 10 17 29.94 1014 5 8 0.04 1.02
1:53 am 01:53 Cloudy with Rain 67 19.4 66 18.9 97 97 N 6 9 29.92 1013 7 11 0.16 4.06
2:53 am 02:53 Cloudy with Light Rain 67 19.4 66 18.9 97 97 ESE 12 19 29.86 1011 10 16 0.08 2.03
3:53 am 03:53 Cloudy 66 18.9 65 18.3 96 96 NNW 12 19 29.87 1012 10 16 0.02 0.51
4:53 am 04:53 Cloudy 66 18.9 65 18.3 96 96 SE 8 13 29.85 1011 10 16 0.00 0.00
5:53 am 05:53 Mostly Cloudy 67 19.4 65 18.3 93 93 Calm 29.85 1011 9 14 0.00 0.00
6:22 am 06:22 Cloudy 67 19.4 66 18.9 97 97 Calm 29.85 1011 9 14 0.00 0.00
6:53 am 06:53 Cloudy 68 20 66 18.9 93 93 N 5 7 29.85 1011 8 13 0.00 0.00
7:20 am 07:20 Cloudy with Mist and Fog 68 20 66 18.9 93 93 N 6 9 29.84 1010 1 2 0.00 0.00
7:37 am 07:37 Cloudy with Mist and Fog 67 19.4 66 18.9 97 97 VRB 5 7 29.84 1010 1 1 0.00 0.00
7:53 am 07:53 Cloudy with Fog 67 19.4 65 18.3 93 93 N 8 13 29.84 1011 1 1 0.00 0.00
8:11 am 08:11 Cloudy with Fog 67 19.4 66 18.9 97 97 N 6 9 29.83 1010 0 0 0.00 0.00
8:26 am 08:26 Cloudy with Fog 67 19.4 66 18.9 97 97 VRB 5 7 29.83 1010 1 1 0.00 0.00
8:41 am 08:41 Cloudy with Mist and Fog 67 19.4 66 18.9 97 97 NNW 6 9 29.83 1010 1 2 0.00 0.00
9:01 am 09:01 Cloudy with Mist and Fog 69 20.6 66 18.9 90 90 VRB 3 6 29.84 1010 5 8 0.00 0.00
9:20 am 09:20 Cloudy 70 21.1 66 18.9 87 87 NNE 6 9 29.82 1010 10 16 0.00 0.00
9:47 am 09:47 Cloudy 72 22 64 18 78 78 NNW 3 6 29.81 1010 10 16 0.00 0.00
9:53 am 09:53 Cloudy 70 21.1 65 18.3 84 84 Calm 29.83 1010 10 16 0.00 0.00
10:00 am 10:00 Cloudy 71 21.7 65 18.3 81 81 VRB 3 6 29.80 1009 10 16 0.00 0.00
10:53 am 10:53 Mostly Cloudy 73 22.8 65 18.3 76 76 VRB 3 6 29.81 1009 10 16 0.00 0.00
11:53 am 11:53 Cloudy 75 23.9 65 18.3 71 71 Calm 29.80 1009 10 16 0.00 0.00
12:06 pm 12:06 Cloudy 73 22.8 65 18.3 76 76 W 3 6 29.78 1008 10 16 0.00 0.00
12:53 pm 12:53 Cloudy 75 23.9 65 18.3 71 71 Calm 29.78 1009 10 16 0.00 0.00
1:53 pm 13:53 Cloudy 74 23.3 65 18.3 74 74 NNE 6 9 29.76 1008 10 16 0.00 0.00
2:26 pm 14:26 Cloudy with Rain 72 22.2 66 18.9 82 82 N 6 9 29.75 1007 5 8 0.01 0.25
2:53 pm 14:53 Cloudy with Heavy Rain 71 21.7 67 19.4 87 87 NNW 6 9 29.79 1009 2 3 0.09 2.29
3:07 pm 15:07 Cloudy with Heavy Rain 69 20.6 67 19.4 93 93 NNW 8 13 29.79 1009 1 1 0.17 4.32
3:21 pm 15:21 Cloudy with Heavy Rain 69 20.6 67 19.4 93 93 N 10 17 29.79 1009 1 2 0.44 11.18
3:40 pm 15:40 Cloudy with Light Rain 69 20.6 67 19.4 93 93 E 14 22 29.71 1006 3 5 0.00 0.00
3:49 pm 15:49 Mostly Cloudy with Light Rain 72 22 70 21 94 94 E 10 17 29.70 1006 6 10 0.00 0.00
3:53 pm 15:53 Mostly Cloudy with Light Rain 71 21.7 69 20.6 93 93 ENE 8 13 29.73 1007 9 14 0.00 0.00
4:11 pm 16:11 Mostly Cloudy 72 22.2 67 19.4 84 84 E 8 13 29.73 1007 10 16 0.01 0.13
4:24 pm 16:24 Mostly Cloudy 72 22.2 66 18.9 82 82 Calm 29.74 1007 10 16 0.01 0.13
4:53 pm 16:53 Cloudy 72 22.2 67 19.4 84 84 NNW 8 13 29.76 1008 10 16 0.01 0.13
5:15 pm 17:15 Cloudy 71 21.7 67 19.4 87 87 NNW 9 15 29.73 1007 10 16 0.00 0.00
5:53 pm 17:53 Cloudy 71 21.7 66 18.9 84 84 NNW 10 17 29.75 1008 10 16 0.00 0.00
6:14 pm 18:14 Cloudy 69 20.6 65 18.3 87 87 NNW 16 26 29.75 1007 10 16 0.00 0.00
6:32 pm 18:32 Cloudy 68 20 64 17.8 87 87 NNW 14 22 29.76 1008 10 16 0.00 0.00
6:53 pm 18:53 Cloudy 68 20 64 17.8 87 87 NNW 12 19 29.76 1008 10 16 0.00 0.00
7:53 pm 19:53 Cloudy 67 19.4 63 17.2 87 87 N 9 15 29.76 1008 10 16 0.00 0.00
8:53 pm 20:53 Cloudy 66 18.9 62 16.7 87 87 NNW 15 24 29.78 1009 10 16 0.00 0.00
9:53 pm 21:53 Cloudy 65 18.3 61 16.1 87 87 NW 9 15 29.80 1009 10 16 0.00 0.00
10:06 pm 22:06 Cloudy 65 18.3 61 16.1 87 87 NW 14 22 29.80 1009 10 16 0.00 0.00
10:29 pm 22:29 Cloudy 63 17.2 59 15 87 87 N 16 26 29.82 1010 10 16 0.00 0.00
10:53 pm 22:53 Cloudy 61 16.1 58 14.4 90 90 NNW 10 17 29.83 1010 8 13 0.00 0.00
11:21 pm 23:21 Cloudy 60 15.6 57 13.9 90 90 NNW 12 19 29.83 1010 9 14 0.00 0.00
11:32 pm 23:32 Cloudy 59 15 56 13.3 90 90 NNW 12 19 29.83 1010 10 16 0.00 0.00
11:53 pm 23:53 Cloudy 59 15 55 12.8 87 87 NNW 13 20 29.83 1010 10 16 0.00 0.00

Powered by Vaisala Xweather